This demonstration page uses our WeatherBlox Daily Observations layout. Learn more.

Left ArrowRight Arrow

38.20091, -84.87328

Hourly Observations for August 7, 2022

Temp ( °F °C ) Dew Point ( °F °C ) Humidity (%) Winds ( mph kmh ) Pressure ( in mb ) Visibility ( mi km ) Precip ( " mm )
12:53 am 00:53 Clear 69 20.6 66 18.9 90 90 Calm 30.16 1021 10 16 0.00 0.00
1:53 am 01:53 Clear 69 20.6 67 19.4 93 93 Calm 30.16 1021 10 16 0.00 0.00
2:53 am 02:53 Cloudy 69 20.6 67 19.4 93 93 SW 5 7 30.16 1021 10 16 0.00 0.00
3:53 am 03:53 Clear 70 21.1 68 20 93 93 Calm 30.16 1021 10 16 0.00 0.00
4:53 am 04:53 Mostly Cloudy 70 21.1 67 19.4 90 90 SE 5 7 30.14 1021 10 16 0.00 0.00
5:53 am 05:53 Clear 69 20.6 67 19.4 93 93 SE 3 6 30.14 1021 10 16 0.00 0.00
6:53 am 06:53 Sunny 70 21.1 68 20 93 93 S 5 7 30.15 1021 10 16 0.00 0.00
7:53 am 07:53 Sunny 72 22.2 69 20.6 91 91 Calm 30.17 1022 10 16 0.00 0.00
8:53 am 08:53 Sunny 76 24.4 71 21.7 85 85 SSW 9 15 30.18 1022 10 16 0.00 0.00
9:53 am 09:53 Sunny 80 26.7 71 21.7 74 74 SW 10 17 30.18 1022 10 16 0.00 0.00
10:53 am 10:53 Partly Cloudy 81 27.2 72 22.2 74 74 WSW 6 9 30.19 1022 10 16 0.00 0.00
11:53 am 11:53 Partly Cloudy 82 27.8 73 22.8 74 74 SW 10 17 30.19 1022 10 16 0.00 0.00
12:53 pm 12:53 Partly Cloudy 82 27.8 73 22.8 74 74 WSW 7 11 30.18 1022 10 16 0.00 0.00
1:53 pm 13:53 Sunny 85 29.4 73 22.8 68 68 S 7 11 30.15 1021 10 16 0.00 0.00
2:53 pm 14:53 Partly Cloudy 86 30 74 23.3 67 67 SSW 6 9 30.12 1020 10 16 0.00 0.00
3:53 pm 15:53 Mostly Cloudy 83 28.3 69 20.6 63 63 NW 16 26 30.12 1020 10 16 0.00 0.00
4:53 pm 16:53 Mostly Sunny 79 26.1 70 21.1 74 74 SSW 9 15 30.10 1019 10 16 0.01 0.25
5:53 pm 17:53 Sunny 80 26.7 71 21.7 74 74 S 8 13 30.10 1019 10 16 0.00 0.00
6:53 pm 18:53 Sunny 79 26.1 72 22.2 79 79 SE 6 9 30.10 1019 10 16 0.00 0.00
7:53 pm 19:53 Sunny 79 26.1 71 21.7 77 77 S 7 11 30.09 1019 10 16 0.00 0.00
8:53 pm 20:53 Clear 76 24.4 69 20.6 79 79 S 8 13 30.10 1019 10 16 0.00 0.00
9:53 pm 21:53 Clear 73 22.8 69 20.6 87 87 S 5 7 30.10 1019 10 16 0.00 0.00
10:53 pm 22:53 Clear 72 22.2 69 20.6 91 91 S 6 9 30.11 1020 10 16 0.00 0.00
11:53 pm 23:53 Clear 73 22.8 71 21.7 94 94 SSW 6 9 30.11 1020 10 16 0.00 0.00

Powered by AerisWeather